[[{"header":{"parameterUnit":"m.s-1","parameterCategory":1,"la1":30.2991,"la2":30.254,"lo1":-89.0895,"lo2":-89.0444,"dy":0.0017,"dx":0.0017,"nx":28,"ny":28,"refTime":"2023-10-23T21:00:00:Z","depth":0,"parameterNumber":2,"parameterNumberName":"U-component_of_WINDS"},"data":[0,0,0,0,0,0,0,0,0,0,0,0,0,0,0,0,0,0,0,0,0,0,0,0,0,0,0,0,0,0,0,0,0,0,0,0,0,0,0,0,0,0,0,0,0,0,0,0,0,0,0,0,0,0,0,0,0,0,-6.808,-6.808,0,-6.8114,-6.8114,-6.8115,-6.8,-6.7996,-6.7993,-6.799,-6.8025,-6.8029,-6.8033,0,0,0,0,0,0,0,0,0,0,0,0,0,-6.7918,-6.7922,-6.808,-6.808,-6.8081,-6.8114,-6.8114,-6.8115,-6.8,-6.7996,-6.7992,-6.7988,-6.8023,-6.8028,-6.8033,0,0,0,0,0,0,0,0,0,0,0,0,0,-6.7974,-6.7923,-6.808,-6.8028,-6.8023,-6.8114,-6.8114,-6.8115,-6.8001,-6.7996,-6.7991,-6.7986,-6.8022,-6.8028,-6.8034,-6.8176,0,0,-6.8053,-6.8056,0,0,0,0,0,0,0,0,-6.7971,-6.798,-6.8035,-6.8031,-6.8027,-6.8047,-6.807,-6.8136,-6.8003,-6.801,-6.799,-6.7984,-6.8037,-6.8041,-6.8059,-6.8178,-6.8179,-6.8054,-6.8057,-6.806,-6.8062,0,0,0,0,0,0,0,-6.7968,-6.7978,-6.8093,-6.8036,-6.8031,-6.8004,-6.8006,-6.8082,-6.8052,-6.8009,-6.8,-6.8006,-6.8033,-6.8053,-6.8059,-6.818,-6.8053,-6.8059,-6.8063,-6.8065,-6.842,-6.8426,0,0,0,0,0,0,-6.797,-6.7976,-6.8092,-6.8094,-6.7986,-6.8011,-6.8013,-6.8046,-6.8051,-6.8046,-6.801,-6.8001,-6.8045,-6.8052,-6.806,-6.8227,-6.806,-6.8066,-6.8069,-6.8415,-6.8422,-6.8428,0,0,0,0,0,0,-6.7967,-6.7982,-6.8091,-6.8033,-6.8045,-6.8019,-6.8057,-6.8049,-6.8069,-6.8052,-6.8046,-6.8036,-6.8041,-6.8051,-6.8149,-6.8227,-6.8069,-6.8074,-6.8408,-6.8417,-6.8425,-6.8563,0,0,0,0,0,0,-6.7963,-6.7981,-6.8034,-6.8035,-6.8048,-6.8179,-6.8062,-6.8054,-6.808,-6.8068,-6.8075,-6.8071,-6.8038,-6.814,-6.8155,-6.8232,-6.8079,-6.8401,-6.8412,-6.8422,-6.8551,-6.8575,-6.8596,0,0,0,0,0,-6.7958,-6.8071,-6.8037,-6.8052,-6.8114,-6.8183,-6.8191,-6.8151,-6.8087,-6.814,-6.813,-6.807,-6.8217,-6.8151,-6.8167,-6.8247,-6.8396,-6.8409,-6.8421,-6.8541,-6.8571,-6.8595,0,0,0,0,0,0,-6.8079,-6.807,-6.8032,-6.8149,-6.8168,-6.8164,-6.8229,-6.8183,-6.822,-6.8206,-6.8155,-6.8158,-6.8265,-6.8266,-6.8193,-6.8387,-6.8295,-6.8312,-6.8381,-6.8409,-6.8431,-6.8427,-6.8084,0,0,0,0,0,-6.812,-6.8177,-6.8166,-6.827,-6.8282,-6.8255,-6.8284,-6.8252,-6.8269,-6.8276,-6.8272,-6.8292,-6.8342,-6.8376,-6.8421,-6.8553,-6.8553,-6.8616,-6.8638,-6.8657,-6.8671,-6.8742,-6.877,-6.847,-6.847,-6.8469,0,0,-6.8203,-6.8206,-6.8244,-6.8295,-6.8305,-6.8366,-6.8262,-6.833,-6.8375,-6.8286,-6.8378,-6.8377,-6.8396,-6.8511,-6.8562,-6.8515,-6.8755,-6.8673,-6.8688,-6.8692,-6.8758,-6.8786,-6.8811,-6.8478,-6.8477,-6.8475,0,0,-6.8386,-6.8395,-6.8482,-6.8496,-6.8515,-6.8496,-6.8518,-6.8522,-6.8518,-6.861,-6.8546,-6.8599,-6.8687,-6.8703,-6.8723,-6.8919,-6.8865,-6.8935,-6.905,-6.9119,-6.9143,-6.9164,-6.9233,-6.9259,-6.895,-6.895,-6.895,0,-6.8488,-6.8576,-6.8534,-6.8607,-6.8632,-6.8557,-6.8646,-6.8662,-6.8695,-6.8714,-6.8662,-6.8772,-6.8779,-6.8898,-6.8946,-6.8965,-6.8989,-6.8932,-6.9143,-6.9163,-6.9182,-6.9248,-6.9274,-6.8958,-6.8957,-6.8957,-6.8956,0,-6.87,-6.8763,-6.8833,-6.8866,-6.89,-6.8981,-6.8952,-6.8991,-6.8958,-6.8947,-6.9043,-6.905,-6.9096,-6.9122,-6.909,-6.9238,-6.9209,-6.9152,-6.9058,-6.922,-6.928,-6.9305,-6.897,-6.8967,-6.8965,-6.8963,0,0,-6.8955,-6.8968,-6.8994,-6.901,-6.9027,-6.9075,-6.9155,-6.9201,-6.9235,-6.9262,-6.9327,-6.9406,-6.9354,-6.9377,-6.9347,-6.9408,-6.9563,-6.9343,-6.9343,-6.9383,-6.9727,-6.9769,-6.9798,-6.953,-6.9535,-6.9538,-6.9725,0,-6.9135,-6.9269,-6.9236,-6.937,-6.9429,-6.9361,-6.9431,-6.945,-6.9442,-6.9492,-6.9484,-6.954,-6.9467,-6.948,-6.9539,-6.9532,-6.9631,-6.9518,-6.959,-6.9593,-6.9585,-6.983,-6.9873,-7.0049,-6.9749,-6.9753,-6.9756,0,-6.936,-6.9397,-6.9537,-6.9547,-6.957,-6.9633,-6.9674,-6.9722,-6.9744,-6.9734,-6.9763,-6.9722,-6.9802,-6.9711,-6.9821,-6.9746,-6.9774,-6.9776,-6.9782,-6.9784,-6.9682,-6.9838,-7.0104,-7.0129,-6.9793,-6.979,-6.9787,0,-6.9531,-6.9616,-6.9711,-6.9726,-6.9741,-6.9787,-6.9795,-6.9812,-6.9843,-6.988,-6.9899,-6.9946,-6.997,-7.0008,-6.9981,-6.9917,-7.0096,-7.0003,-7.009,-7.0091,-7.0128,-7.0125,-7.04,-7.0151,-7.0151,-7.015,-7.0149,0,-6.9733,-6.9821,-6.9788,-6.9846,-6.9944,-6.9907,-7.0005,-7.0006,-7.0022,-7.008,-7.0026,-7.0082,-7.0045,-7.0099,-7.0079,-7.0174,-7.0186,-7.0181,-7.0174,-7.0184,-7.0184,-7.0199,-7.0185,-7.0157,-7.0155,-7.0154,-7.0153,0,-6.9938,-6.9919,-7.0019,-7.0026,-7.003,-7.0102,-7.0108,-7.0163,-7.0154,-7.0229,-7.0245,-7.023,-7.0291,-7.0269,-7.0334,-7.0321,-7.0442,-7.042,-7.0434,-7.0428,-7.0516,-7.0508,-7.0808,-7.0846,-7.0574,-7.0577,-7.0579,0,-7.0066,-7.0133,-7.0148,-7.0184,-7.0196,-7.0254,-7.0286,-7.0254,-7.0289,-7.0322,-7.0373,-7.043,-7.0472,-7.0573,-7.0569,-7.0619,-7.0597,-7.0699,-7.0604,-7.0613,-7.0597,-7.0592,-7.0599,-7.0717,-7.072,-7.0723,-7.0725,0,-7.0296,-7.0285,-7.0332,-7.0379,-7.0419,-7.0454,-7.0484,-7.0516,-7.0486,-7.053,-7.0591,-7.0625,-7.0693,-7.075,-7.0796,-7.0805,-7.0761,-7.0756,-7.0778,-7.0788,-7.0793,-7.079,-7.0483,-7.0748,-7.0746,-7.0744,-7.0743,-7.0742,-7.0465,-7.0522,-7.0543,-7.0599,-7.0619,-7.0649,-7.0702,-7.07,-7.0751,-7.0804,-7.0783,-7.0855,-7.0878,-7.0935,-7.0952,-7.1009,-7.0969,-7.1002,-7.101,-7.1018,-7.1029,-7.0787,-7.1017,-7.1016,-7.1016,-7.1015,-7.1015,0,-7.0691,-7.0702,-7.0754,-7.0799,-7.0844,-7.0801,-7.0833,-7.0873,-7.0937,-7.0963,-7.1007,-7.108,-7.1136,-7.1139,-7.1191,-7.1237,-7.1218,-7.1251,-7.1246,-7.1249,-7.1062,-7.1036,-7.1266,-7.1266,-7.1266,-7.1266,-7.1266,-7.1266,-7.0813,-7.0907,-7.0899,-7.1004,-7.1014,-7.1084,-7.1107,-7.1135,-7.1156,-7.1239,-7.1286,-7.1288,-7.1305,-7.1359,-7.141,-7.1409,-7.143,-7.1472,-7.1464,-7.1287,-7.1262,-7.1238,-7.1214,-7.1477,-7.1478,-7.1646,-7.1648,-7.1649]},{"header":{"parameterUnit":"m.s-1","parameterCategory":1,"la1":30.2991,"la2":30.254,"lo1":-89.0895,"lo2":-89.0444,"dy":0.0017,"dx":0.0017,"nx":28,"ny":28,"refTime":"2023-10-23T21:00:00:Z","depth":0,"parameterNumber":3,"parameterNumberName":"V-component_of_WINDS"},"data":[0,0,0,0,0,0,0,0,0,0,0,0,0,0,0,0,0,0,0,0,0,0,0,0,0,0,0,0,0,0,0,0,0,0,0,0,0,0,0,0,0,0,0,0,0,0,0,0,0,0,0,0,0,0,0,0,0,0,2.2433,2.2434,0,2.247,2.2471,2.2471,2.2537,2.2539,2.254,2.2541,2.2571,2.257,2.257,0,0,0,0,0,0,0,0,0,0,0,0,0,2.2414,2.2414,2.2433,2.2434,2.2434,2.247,2.2471,2.2471,2.2537,2.2539,2.254,2.2542,2.2571,2.257,2.257,0,0,0,0,0,0,0,0,0,0,0,0,0,2.2434,2.2414,2.2433,2.2472,2.2475,2.247,2.2471,2.2471,2.2537,2.2539,2.2541,2.2542,2.2571,2.257,2.257,2.2527,0,0,2.2568,2.2568,0,0,0,0,0,0,0,0,2.2433,2.2434,2.2465,2.2469,2.2473,2.2501,2.2475,2.249,2.2536,2.2513,2.2541,2.2543,2.2545,2.2547,2.2549,2.2529,2.253,2.2568,2.2567,2.2567,2.2567,0,0,0,0,0,0,0,2.2431,2.2433,2.2447,2.2466,2.247,2.2485,2.249,2.2478,2.2518,2.2515,2.252,2.2524,2.2548,2.255,2.2551,2.253,2.2568,2.2567,2.2567,2.2567,2.2479,2.2477,0,0,0,0,0,0,2.2425,2.2432,2.2446,2.2449,2.2458,2.2484,2.249,2.249,2.2518,2.2524,2.2522,2.2527,2.255,2.2551,2.2552,2.2506,2.2567,2.2567,2.2566,2.2481,2.2479,2.2477,0,0,0,0,0,0,2.2425,2.2426,2.2445,2.2442,2.2445,2.2482,2.2482,2.249,2.2492,2.2524,2.253,2.2518,2.2552,2.2553,2.2534,2.2508,2.2566,2.2566,2.2483,2.248,2.2478,2.2412,0,0,0,0,0,0,2.2424,2.2425,2.241,2.2441,2.2445,2.2428,2.2481,2.2489,2.2492,2.2498,2.2521,2.2526,2.2553,2.2535,2.2534,2.2508,2.2565,2.2486,2.2482,2.2479,2.2416,2.2407,2.2399,0,0,0,0,0,2.2423,2.2388,2.2409,2.2411,2.2428,2.2426,2.2428,2.2462,2.2489,2.2474,2.2495,2.2526,2.2511,2.2532,2.2531,2.2505,2.2488,2.2483,2.2479,2.242,2.2409,2.2399,0,0,0,0,0,0,2.2349,2.2392,2.2417,2.2391,2.2405,2.2437,2.2419,2.2448,2.2452,2.2458,2.2498,2.2502,2.2478,2.249,2.2513,2.2467,2.2504,2.25,2.246,2.2449,2.2441,2.2438,2.2565,0,0,0,0,0,2.2331,2.2328,2.2365,2.2339,2.2345,2.2381,2.2381,2.2407,2.2421,2.2427,2.2446,2.2457,2.2456,2.2453,2.2453,2.2419,2.2425,2.2401,2.2392,2.2385,2.2379,2.2364,2.2354,2.2462,2.2462,2.2462,0,0,2.2291,2.2314,2.2309,2.2325,2.2338,2.2333,2.2385,2.2376,2.2373,2.2424,2.2409,2.2424,2.2439,2.2413,2.2403,2.2422,2.2351,2.2379,2.2373,2.2372,2.2358,2.2348,2.2339,2.2459,2.246,2.246,0,0,2.2217,2.2234,2.2215,2.2229,2.2251,2.2276,2.2271,2.23,2.2313,2.2299,2.2339,2.2334,2.233,2.234,2.2344,2.2278,2.2306,2.2277,2.223,2.2214,2.2206,2.2198,2.2175,2.2166,2.2272,2.2272,2.2272,0,2.2164,2.216,2.2201,2.2192,2.2197,2.2248,2.2229,2.224,2.2259,2.2261,2.2283,2.2282,2.2295,2.2273,2.2258,2.2259,2.2255,2.2273,2.2204,2.2197,2.2191,2.2169,2.216,2.2268,2.2268,2.2269,2.2269,0,2.2094,2.2091,2.2073,2.2095,2.2098,2.2083,2.2122,2.212,2.2146,2.2168,2.2154,2.2173,2.2179,2.2176,2.2199,2.2158,2.217,2.2197,2.2236,2.2176,2.2157,2.2149,2.2263,2.2264,2.2265,2.2266,0,0,2.1971,2.202,2.2012,2.2024,2.2053,2.205,2.2038,2.2048,2.2046,2.2058,2.2049,2.2046,2.2074,2.2079,2.2104,2.2091,2.2039,2.2121,2.2122,2.2105,2.1995,2.1974,2.1963,2.2059,2.2057,2.2056,2.1994,0,2.1903,2.1888,2.1926,2.1901,2.1899,2.1949,2.1939,2.1955,2.1976,2.1976,2.1999,2.1997,2.2032,2.2036,2.2025,2.2047,2.2017,2.2052,2.2049,2.2048,2.2043,2.1953,2.193,2.187,2.1986,2.1985,2.1984,0,2.182,2.1833,2.1808,2.1842,2.1843,2.1833,2.1846,2.1846,2.1866,2.1882,2.189,2.1922,2.1911,2.195,2.1936,2.196,2.1961,2.1972,2.197,2.197,2.2012,2.195,2.1852,2.1843,2.1972,2.1973,2.1974,0,2.1734,2.1744,2.1732,2.174,2.1779,2.1771,2.1787,2.1809,2.1813,2.1824,2.1827,2.1835,2.1839,2.1844,2.1876,2.1901,2.1859,2.19,2.1872,2.1871,2.1859,2.1859,2.1759,2.186,2.1861,2.1861,2.1861,0,2.1653,2.1636,2.1694,2.1686,2.1669,2.1714,2.1695,2.1715,2.1735,2.1731,2.1774,2.1768,2.1813,2.1812,2.1837,2.1823,2.1824,2.1836,2.1843,2.1832,2.1831,2.1833,2.1838,2.1858,2.1859,2.1859,2.186,0,2.1553,2.1592,2.1582,2.1621,2.1631,2.1616,2.1649,2.1643,2.1668,2.1663,2.1664,2.1703,2.1705,2.1739,2.1747,2.1764,2.1739,2.1754,2.1733,2.1738,2.1708,2.1711,2.1605,2.1594,2.1702,2.1701,2.17,0,2.1499,2.1488,2.1528,2.153,2.1545,2.1547,2.1553,2.1596,2.16,2.1624,2.1614,2.1621,2.1628,2.1629,2.1656,2.1663,2.1678,2.1641,2.1679,2.167,2.1678,2.1678,2.1678,2.1632,2.1631,2.163,2.1629,0,2.1399,2.142,2.1428,2.1443,2.145,2.1463,2.1478,2.1477,2.1525,2.1526,2.1531,2.1537,2.1548,2.1554,2.1567,2.1581,2.1612,2.1617,2.1611,2.16,2.1589,2.1595,2.1711,2.1619,2.162,2.1621,2.1621,2.1622,2.1321,2.1315,2.1343,2.135,2.1368,2.1382,2.1379,2.1406,2.1412,2.1426,2.1451,2.1452,2.1474,2.1495,2.1507,2.1508,2.1526,2.1517,2.1515,2.1512,2.1506,2.1589,2.151,2.151,2.151,2.1511,2.1511,0,2.1224,2.1246,2.1253,2.1275,2.1282,2.1315,2.1335,2.1337,2.1339,2.1358,2.1366,2.1372,2.1378,2.1408,2.1418,2.1412,2.1427,2.1413,2.1414,2.1417,2.1489,2.1493,2.1401,2.1401,2.1401,2.1401,2.1401,2.1401,2.1174,2.1166,2.119,2.119,2.1211,2.1216,2.1224,2.1238,2.1254,2.1259,2.1267,2.1287,2.1311,2.1323,2.133,2.1339,2.134,2.1322,2.1335,2.1401,2.1411,2.1421,2.1426,2.1322,2.1321,2.1263,2.1262,2.1262]}]]